Location: Arpaise
(41.0333°N, 14.7333°E)
Time: 08:01:11
(UTC+00:00)

Cosmos 1892 - Pass Details

Date: 05 July 2020
Orbit: 505 x 523 km, 82.5° (Epoch: 05 August)

Event Time Altitude Azimuth Distance (km) Brightness Sun altitude
Exits shadow 21:07:07 41° 78° (ENE) 751 3.3 -20.6°
Drops below altitude 10° 21:10:23 10° 22° (NNE) 1,735 5.9 -20.9°
Sets 21:12:35 0° 15° (NNE) 2,629 7.0 -21.1°
